This is the latest recevied weather packets stored in our database for station/object K7SKM. If no packets are shown the sender has not sent any weather packets the latest 10 day(s).
| Time | Temp. | Humidity | Pressure | Rain* | Wind** | Luminosity | Snow |
|---|---|---|---|---|---|---|---|
| 1788286548 | 18.89° C | 68% | 1015.3 hPa | 0 mm | - | 66 W/m² | - |
| 1788286229 | 18.33° C | 69% | 1015 hPa | 0 mm | - | 63 W/m² | - |
| 1788285927 | 18.33° C | 69% | 1015.1 hPa | 0 mm | - | 69 W/m² | - |
| 1788285622 | 18.33° C | 69% | 1015.2 hPa | 0 mm | - | 95 W/m² | - |
| 1788285316 | 18.33° C | 68% | 1015 hPa | 0 mm | - | 98 W/m² | - |
| 1788285011 | 18.33° C | 69% | 1015 hPa | 0 mm | - | 100 W/m² | - |
| 1788284707 | 18.33° C | 69% | 1015 hPa | 0 mm | - | 121 W/m² | - |
| 1788284403 | 18.33° C | 69% | 1014.7 hPa | 0 mm | - | 108 W/m² | - |
| 1788284097 | 17.78° C | 70% | 1014.9 hPa | 0 mm | - | 98 W/m² | - |
| 1788283794 | 18.33° C | 68% | 1014.9 hPa | 0 mm | - | 70 W/m² | - |
| 1788283489 | 18.89° C | 67% | 1014.9 hPa | 0 mm | - | 78 W/m² | - |
| 1788283187 | 18.89° C | 67% | 1015.1 hPa | 0 mm | - | 87 W/m² | - |
| 1788282885 | 18.89° C | 68% | 1014.8 hPa | 0 mm | - | 108 W/m² | - |
| 1788282584 | 19.44° C | 68% | 1014.7 hPa | 0 mm | - | 122 W/m² | - |
| 1788282279 | 18.33° C | 69% | 1014.8 hPa | 0 mm | - | 123 W/m² | - |
| 1788281979 | 17.78° C | 70% | 1014.9 hPa | 0 mm | - | 148 W/m² | - |
| 1788281674 | 17.78° C | 71% | 1015 hPa | 0 mm | - | 115 W/m² | - |
| 1788281370 | 17.78° C | 72% | 1015 hPa | 0 mm | - | 114 W/m² | - |
| 1788281064 | 17.78° C | 72% | 1015.1 hPa | 0 mm | - | 91 W/m² | - |
| 1788280760 | 17.78° C | 71% | 1015 hPa | 0 mm | - | 128 W/m² | - |
| 1788280454 | 17.78° C | 72% | 1015.2 hPa | 0 mm | - | 153 W/m² | - |
| 1788280149 | 17.22° C | 72% | 1015.3 hPa | 0 mm | - | 134 W/m² | - |
| 1788279848 | 17.22° C | 74% | 1015.2 hPa | 0 mm | - | 166 W/m² | - |
| 1788279542 | 16.67° C | 74% | 1015.3 hPa | 0 mm | - | 111 W/m² | - |
| 1788279241 | 16.67° C | 76% | 1015.1 hPa | 0 mm | - | 113 W/m² | - |
* Rain latest hour (hover to see other rain measurements)
** Current wind speed in m/s (hover to see current wind gust speed)